Location: Catacaguana
(10.4120°N, 66.7591°W)
Time: 05:17:32
(UTC+00:00)

FALCON 9 R/B - Pass Details

Date: 27 May 2022
Orbit: 298 x 9970 km, 34.5° (Epoch: 26 June)

Event Time Altitude Azimuth Distance (km) Brightness Sun altitude
Rises 08:33:41 0° 304° (NW) 7,073 6.7 -21.1°
Reaches altitude 10° 08:40:16 10° 304° (WNW) 4,557 5.7 -19.6°
Maximum altitude 08:49:53 82° 218° (SW) 785 1.9 -17.5°
Drops below altitude 10° 08:53:14 10° 129° (SE) 1,658 4.1 -16.8°
Sets 08:54:38 0° 128° (SE) 2,299 4.9 -16.5°
